Location: Burgwalden
(48.2830°N, 10.7576°E)
Time: 02:26:32
(UTC+00:00)

BREEZE-M DEB (TANK) - Pass Details

Date: 26 September 2023
Orbit: 259 x 12586 km, 49.6° (Epoch: 04 December)

Event Time Altitude Azimuth Distance (km) Brightness Sun altitude
Exits shadow 01:05:37 70° 119° (ESE) 1,586 4.4 -36.5°
Drops below altitude 10° 01:25:02 10° 71° (ENE) 8,354 8.9 -34.4°
Sets 01:37:04 0° 72° (ENE) 11,746 9.9 -33.0°
